[[{"header":{"parameterUnit":"m.s-1","parameterCategory":1,"la1":30.2991,"la2":30.254,"lo1":-89.0895,"lo2":-89.0444,"dy":0.0017,"dx":0.0017,"nx":28,"ny":28,"refTime":"2026-01-29T09:00:00:Z","depth":0,"parameterNumber":2,"parameterNumberName":"U-component_of_WINDS"},"data":[0,0,0,0,0,0,0,0,0,0,0,0,0,0,0,0,0,0,0,0,0,0,0,0,0,0,0,0,0,0,0,0,0,0,0,0,0,0,0,0,0,0,0,0,0,0,0,0,0,0,0,0,0,0,0,0,0,0,-1.7953,-1.7954,0,-1.797,-1.797,-1.7971,-1.7911,-1.7909,-1.7908,-1.7906,-1.7923,-1.7925,-1.7927,0,0,0,0,0,0,0,0,0,0,0,0,0,-1.787,-1.7872,-1.7953,-1.7954,-1.7954,-1.797,-1.797,-1.7971,-1.7911,-1.7909,-1.7907,-1.7905,-1.7923,-1.7925,-1.7928,0,0,0,0,0,0,0,0,0,0,0,0,0,-1.7899,-1.7873,-1.7953,-1.7926,-1.7924,-1.797,-1.797,-1.7971,-1.7912,-1.7909,-1.7907,-1.7904,-1.7922,-1.7925,-1.7928,-1.8001,0,0,-1.7938,-1.7939,0,0,0,0,0,0,0,0,-1.7897,-1.7902,-1.793,-1.7928,-1.7926,-1.7936,-1.7947,-1.7981,-1.7913,-1.7917,-1.7906,-1.7903,-1.793,-1.7932,-1.7941,-1.8002,-1.8003,-1.7938,-1.794,-1.7941,-1.7942,0,0,0,0,0,0,0,-1.7895,-1.7901,-1.796,-1.7931,-1.7928,-1.7913,-1.7914,-1.7953,-1.7938,-1.7916,-1.7912,-1.7914,-1.7928,-1.7938,-1.7941,-1.8003,-1.7938,-1.7941,-1.7943,-1.7944,-1.8125,-1.8127,0,0,0,0,0,0,-1.7897,-1.7899,-1.7959,-1.796,-1.7905,-1.7917,-1.7918,-1.7935,-1.7937,-1.7935,-1.7917,-1.7912,-1.7934,-1.7937,-1.7941,-1.8027,-1.7941,-1.7944,-1.7946,-1.8122,-1.8125,-1.8128,0,0,0,0,0,0,-1.7895,-1.7903,-1.7959,-1.7929,-1.7935,-1.7921,-1.7941,-1.7937,-1.7947,-1.7938,-1.7935,-1.793,-1.7932,-1.7937,-1.7987,-1.8027,-1.7946,-1.7949,-1.8118,-1.8123,-1.8127,-1.8199,0,0,0,0,0,0,-1.7893,-1.7902,-1.793,-1.793,-1.7937,-1.8004,-1.7943,-1.7939,-1.7953,-1.7946,-1.7949,-1.7947,-1.793,-1.7982,-1.799,-1.803,-1.7951,-1.8115,-1.812,-1.8125,-1.8193,-1.8206,-1.8216,0,0,0,0,0,-1.789,-1.795,-1.7932,-1.7939,-1.7971,-1.8006,-1.801,-1.7989,-1.7956,-1.7984,-1.7978,-1.7947,-1.8021,-1.7988,-1.7996,-1.8037,-1.8112,-1.8119,-1.8125,-1.8188,-1.8203,-1.8216,0,0,0,0,0,0,-1.7955,-1.7949,-1.7929,-1.799,-1.7999,-1.7996,-1.8031,-1.8006,-1.8024,-1.8018,-1.7991,-1.7992,-1.8047,-1.8047,-1.801,-1.8108,-1.8061,-1.8069,-1.8106,-1.812,-1.8132,-1.8131,-1.7954,0,0,0,0,0,-1.7977,-1.8006,-1.7999,-1.8054,-1.8059,-1.8045,-1.8059,-1.8042,-1.805,-1.8054,-1.8051,-1.8061,-1.8086,-1.8103,-1.8126,-1.8193,-1.8193,-1.8226,-1.8237,-1.8246,-1.8254,-1.829,-1.8304,-1.815,-1.815,-1.815,0,0,-1.8021,-1.8022,-1.8042,-1.8067,-1.8072,-1.8103,-1.8048,-1.8083,-1.8106,-1.8059,-1.8106,-1.8105,-1.8113,-1.8172,-1.8198,-1.8174,-1.8297,-1.8255,-1.8262,-1.8265,-1.8298,-1.8313,-1.8326,-1.8154,-1.8153,-1.8153,0,0,-1.8118,-1.8121,-1.8167,-1.8174,-1.8182,-1.8171,-1.8183,-1.8183,-1.8181,-1.8227,-1.8193,-1.822,-1.8264,-1.8271,-1.8281,-1.8381,-1.8354,-1.8389,-1.8449,-1.8484,-1.8497,-1.8507,-1.8543,-1.8556,-1.8397,-1.8397,-1.8397,0,-1.8172,-1.8218,-1.8194,-1.8232,-1.8244,-1.8203,-1.825,-1.8257,-1.8272,-1.8282,-1.8254,-1.8309,-1.8312,-1.8372,-1.8396,-1.8406,-1.8417,-1.8389,-1.8497,-1.8507,-1.8517,-1.8551,-1.8564,-1.8401,-1.8401,-1.84,-1.84,0,-1.8284,-1.8317,-1.8353,-1.8369,-1.8385,-1.8427,-1.841,-1.8429,-1.8411,-1.8403,-1.8452,-1.8453,-1.8476,-1.8489,-1.8471,-1.8547,-1.8532,-1.8501,-1.8453,-1.8536,-1.8568,-1.8581,-1.8408,-1.8406,-1.8405,-1.8404,0,0,-1.8423,-1.8425,-1.8439,-1.8446,-1.8452,-1.8476,-1.8517,-1.8538,-1.8556,-1.8568,-1.8601,-1.8639,-1.8611,-1.8622,-1.8605,-1.8636,-1.8715,-1.8601,-1.8601,-1.8623,-1.8799,-1.8822,-1.8837,-1.8697,-1.8699,-1.8701,-1.8798,0,-1.8518,-1.8587,-1.8567,-1.8636,-1.8666,-1.8627,-1.8662,-1.867,-1.8664,-1.8688,-1.8682,-1.8709,-1.867,-1.8676,-1.8705,-1.87,-1.875,-1.8692,-1.8728,-1.8729,-1.8727,-1.8854,-1.8878,-1.897,-1.881,-1.8812,-1.8814,0,-1.8639,-1.8656,-1.8728,-1.873,-1.8741,-1.8773,-1.8792,-1.8815,-1.8823,-1.8817,-1.8829,-1.8806,-1.8845,-1.8797,-1.8851,-1.8812,-1.8825,-1.8825,-1.8828,-1.883,-1.8777,-1.886,-1.8998,-1.9012,-1.8833,-1.8831,-1.883,0,-1.8733,-1.8774,-1.8822,-1.8829,-1.8832,-1.8856,-1.8858,-1.8863,-1.8878,-1.8894,-1.8903,-1.8924,-1.8935,-1.8952,-1.8935,-1.8901,-1.8992,-1.8942,-1.8988,-1.8988,-1.9009,-1.9008,-1.9151,-1.9017,-1.9017,-1.9017,-1.9016,0,-1.8842,-1.8888,-1.8865,-1.8895,-1.8945,-1.8921,-1.8971,-1.8969,-1.8974,-1.9003,-1.8971,-1.8999,-1.8974,-1.9,-1.8987,-1.9034,-1.9039,-1.9035,-1.9031,-1.9038,-1.9039,-1.9047,-1.904,-1.902,-1.9019,-1.9019,-1.9018,0,-1.8956,-1.8942,-1.8992,-1.8991,-1.8992,-1.9029,-1.9028,-1.9055,-1.9047,-1.9084,-1.9091,-1.9079,-1.9107,-1.9092,-1.9121,-1.9112,-1.9173,-1.916,-1.917,-1.9167,-1.9214,-1.921,-1.9367,-1.9387,-1.924,-1.9242,-1.9243,0,-1.9026,-1.906,-1.9063,-1.908,-1.9085,-1.9112,-1.9127,-1.9105,-1.9122,-1.9134,-1.916,-1.9186,-1.9205,-1.9252,-1.9246,-1.9268,-1.9256,-1.9309,-1.9259,-1.9265,-1.9257,-1.9255,-1.9258,-1.932,-1.9321,-1.9323,-1.9324,0,-1.9153,-1.9145,-1.9167,-1.9188,-1.9206,-1.9221,-1.9234,-1.925,-1.9228,-1.9249,-1.9277,-1.9292,-1.9322,-1.9348,-1.9367,-1.9369,-1.9344,-1.934,-1.9352,-1.9359,-1.9364,-1.9362,-1.9198,-1.9336,-1.9335,-1.9334,-1.9334,-1.9333,-1.9247,-1.9276,-1.9282,-1.9309,-1.9316,-1.9328,-1.9354,-1.9349,-1.9373,-1.9396,-1.9381,-1.9415,-1.9422,-1.9445,-1.9451,-1.9477,-1.9455,-1.9473,-1.9477,-1.9482,-1.9488,-1.936,-1.948,-1.948,-1.948,-1.9479,-1.9479,0,-1.9372,-1.9375,-1.9399,-1.9418,-1.9439,-1.9412,-1.9425,-1.9444,-1.9474,-1.9483,-1.9503,-1.9536,-1.9561,-1.9556,-1.9579,-1.9601,-1.9589,-1.9607,-1.9606,-1.9607,-1.9506,-1.9493,-1.9616,-1.9616,-1.9616,-1.9616,-1.9616,-1.9616,-1.944,-1.9488,-1.948,-1.9531,-1.9532,-1.9565,-1.9575,-1.9586,-1.9593,-1.9632,-1.9652,-1.9649,-1.9653,-1.9675,-1.9697,-1.9695,-1.9705,-1.9728,-1.9721,-1.9627,-1.9614,-1.9601,-1.9589,-1.973,-1.973,-1.982,-1.9821,-1.9821]},{"header":{"parameterUnit":"m.s-1","parameterCategory":1,"la1":30.2991,"la2":30.254,"lo1":-89.0895,"lo2":-89.0444,"dy":0.0017,"dx":0.0017,"nx":28,"ny":28,"refTime":"2026-01-29T09:00:00:Z","depth":0,"parameterNumber":3,"parameterNumberName":"V-component_of_WINDS"},"data":[0,0,0,0,0,0,0,0,0,0,0,0,0,0,0,0,0,0,0,0,0,0,0,0,0,0,0,0,0,0,0,0,0,0,0,0,0,0,0,0,0,0,0,0,0,0,0,0,0,0,0,0,0,0,0,0,0,0,-1.0826,-1.0826,0,-1.0834,-1.0834,-1.0834,-1.0814,-1.0813,-1.0813,-1.0812,-1.082,-1.0821,-1.0821,0,0,0,0,0,0,0,0,0,0,0,0,0,-1.0793,-1.0794,-1.0826,-1.0826,-1.0826,-1.0834,-1.0834,-1.0834,-1.0814,-1.0813,-1.0812,-1.0812,-1.082,-1.0821,-1.0822,0,0,0,0,0,0,0,0,0,0,0,0,0,-1.0805,-1.0794,-1.0826,-1.0817,-1.0816,-1.0834,-1.0834,-1.0834,-1.0814,-1.0813,-1.0812,-1.0811,-1.0819,-1.082,-1.0822,-1.0848,0,0,-1.0825,-1.0826,0,0,0,0,0,0,0,0,-1.0804,-1.0806,-1.0818,-1.0818,-1.0817,-1.0822,-1.0825,-1.0838,-1.0814,-1.0815,-1.0812,-1.0811,-1.0821,-1.0822,-1.0826,-1.0848,-1.0848,-1.0825,-1.0826,-1.0827,-1.0827,0,0,0,0,0,0,0,-1.0804,-1.0806,-1.0829,-1.0819,-1.0818,-1.0813,-1.0813,-1.0828,-1.0823,-1.0815,-1.0813,-1.0815,-1.0821,-1.0825,-1.0826,-1.0849,-1.0825,-1.0826,-1.0827,-1.0828,-1.0891,-1.0892,0,0,0,0,0,0,-1.0804,-1.0805,-1.0829,-1.0829,-1.0808,-1.0814,-1.0815,-1.0821,-1.0823,-1.0822,-1.0815,-1.0814,-1.0823,-1.0824,-1.0826,-1.0856,-1.0827,-1.0828,-1.0828,-1.0891,-1.0892,-1.0893,0,0,0,0,0,0,-1.0803,-1.0806,-1.0828,-1.0817,-1.0819,-1.0815,-1.0823,-1.0822,-1.0826,-1.0823,-1.0823,-1.082,-1.0822,-1.0824,-1.0842,-1.0856,-1.0828,-1.0829,-1.0889,-1.0891,-1.0892,-1.0917,0,0,0,0,0,0,-1.0803,-1.0806,-1.0816,-1.0817,-1.082,-1.0845,-1.0824,-1.0823,-1.0828,-1.0826,-1.0828,-1.0827,-1.0822,-1.0841,-1.0843,-1.0857,-1.083,-1.0888,-1.089,-1.0892,-1.0914,-1.0919,-1.0922,0,0,0,0,0,-1.0801,-1.0823,-1.0817,-1.082,-1.0833,-1.0846,-1.0847,-1.084,-1.0829,-1.0839,-1.0837,-1.0827,-1.0854,-1.0843,-1.0846,-1.086,-1.0887,-1.0889,-1.0892,-1.0913,-1.0918,-1.0922,0,0,0,0,0,0,-1.0824,-1.0823,-1.0816,-1.0839,-1.0842,-1.0842,-1.0855,-1.0846,-1.0853,-1.0851,-1.0842,-1.0843,-1.0862,-1.0863,-1.085,-1.0885,-1.0869,-1.0872,-1.0884,-1.0888,-1.0892,-1.0892,-1.0831,0,0,0,0,0,-1.0832,-1.0843,-1.0841,-1.0861,-1.0863,-1.0859,-1.0864,-1.0859,-1.0862,-1.0863,-1.0863,-1.0867,-1.0876,-1.0882,-1.0891,-1.0914,-1.0914,-1.0926,-1.0929,-1.0933,-1.0935,-1.0947,-1.0952,-1.09,-1.09,-1.09,0,0,-1.0848,-1.0849,-1.0856,-1.0866,-1.0868,-1.0879,-1.086,-1.0873,-1.0881,-1.0865,-1.0882,-1.0882,-1.0885,-1.0906,-1.0915,-1.0907,-1.0949,-1.0935,-1.0938,-1.0939,-1.095,-1.0955,-1.0959,-1.0902,-1.0901,-1.0901,0,0,-1.0883,-1.0884,-1.0901,-1.0903,-1.0906,-1.0903,-1.0907,-1.0908,-1.0907,-1.0924,-1.0912,-1.0921,-1.0937,-1.094,-1.0943,-1.0978,-1.0969,-1.0981,-1.1001,-1.1013,-1.1017,-1.102,-1.1032,-1.1037,-1.0984,-1.0984,-1.0984,0,-1.0902,-1.0918,-1.0911,-1.0924,-1.0928,-1.0914,-1.093,-1.0933,-1.0939,-1.0942,-1.0933,-1.0952,-1.0954,-1.0974,-1.0983,-1.0986,-1.099,-1.0981,-1.1017,-1.102,-1.1024,-1.1035,-1.1039,-1.0985,-1.0985,-1.0985,-1.0985,0,-1.0942,-1.0953,-1.0966,-1.0972,-1.0977,-1.0992,-1.0986,-1.0993,-1.0987,-1.0984,-1.1001,-1.1002,-1.101,-1.1014,-1.1008,-1.1034,-1.1029,-1.1018,-1.1002,-1.103,-1.104,-1.1045,-1.0987,-1.0987,-1.0986,-1.0986,0,0,-1.0992,-1.0992,-1.0997,-1.0999,-1.1001,-1.1009,-1.1023,-1.1031,-1.1036,-1.1041,-1.1052,-1.1065,-1.1055,-1.1059,-1.1054,-1.1064,-1.109,-1.1052,-1.1052,-1.1059,-1.1118,-1.1125,-1.113,-1.1084,-1.1085,-1.1085,-1.1117,0,-1.1026,-1.1049,-1.1042,-1.1066,-1.1076,-1.1062,-1.1074,-1.1076,-1.1074,-1.1082,-1.1079,-1.1089,-1.1076,-1.1078,-1.1087,-1.1085,-1.1102,-1.1083,-1.1094,-1.1094,-1.1093,-1.1136,-1.1144,-1.1174,-1.1121,-1.1122,-1.1122,0,-1.1068,-1.1074,-1.1098,-1.1098,-1.1102,-1.1113,-1.1118,-1.1126,-1.1128,-1.1126,-1.113,-1.1122,-1.1135,-1.1118,-1.1136,-1.1123,-1.1127,-1.1127,-1.1128,-1.1128,-1.111,-1.1137,-1.1184,-1.1188,-1.1129,-1.1128,-1.1128,0,-1.1102,-1.1115,-1.1131,-1.1133,-1.1133,-1.1141,-1.1141,-1.1143,-1.1147,-1.1152,-1.1155,-1.1162,-1.1165,-1.117,-1.1164,-1.1153,-1.1182,-1.1166,-1.118,-1.1181,-1.1187,-1.1187,-1.1235,-1.119,-1.119,-1.119,-1.119,0,-1.114,-1.1156,-1.1146,-1.1156,-1.1173,-1.1164,-1.1181,-1.1179,-1.118,-1.119,-1.1178,-1.1187,-1.1178,-1.1186,-1.1181,-1.1196,-1.1198,-1.1196,-1.1195,-1.1197,-1.1197,-1.12,-1.1197,-1.1191,-1.1191,-1.1191,-1.1191,0,-1.118,-1.1175,-1.1191,-1.1189,-1.1189,-1.1202,-1.12,-1.1209,-1.1205,-1.1217,-1.1219,-1.1214,-1.1223,-1.1217,-1.1226,-1.1222,-1.1242,-1.1238,-1.1241,-1.124,-1.1255,-1.1253,-1.1306,-1.1312,-1.1264,-1.1264,-1.1265,0,-1.1205,-1.1216,-1.1216,-1.1221,-1.1222,-1.123,-1.1235,-1.1226,-1.1231,-1.1234,-1.1243,-1.125,-1.1256,-1.127,-1.1267,-1.1274,-1.1269,-1.1287,-1.127,-1.1272,-1.1269,-1.1268,-1.1269,-1.129,-1.1291,-1.1292,-1.1292,0,-1.1249,-1.1246,-1.1253,-1.1258,-1.1264,-1.1268,-1.1271,-1.1276,-1.1267,-1.1273,-1.1282,-1.1286,-1.1295,-1.1302,-1.1307,-1.1307,-1.1298,-1.1297,-1.1301,-1.1303,-1.1305,-1.1304,-1.125,-1.1296,-1.1296,-1.1295,-1.1295,-1.1295,-1.1282,-1.1291,-1.1292,-1.13,-1.1301,-1.1304,-1.1312,-1.1309,-1.1316,-1.1322,-1.1317,-1.1327,-1.1328,-1.1334,-1.1335,-1.1343,-1.1335,-1.1341,-1.1342,-1.1344,-1.1345,-1.1304,-1.1343,-1.1343,-1.1343,-1.1343,-1.1343,0,-1.1326,-1.1325,-1.1332,-1.1336,-1.1342,-1.1333,-1.1335,-1.1341,-1.135,-1.1351,-1.1357,-1.1366,-1.1373,-1.1371,-1.1377,-1.1383,-1.1379,-1.1385,-1.1385,-1.1385,-1.1352,-1.1348,-1.1388,-1.1388,-1.1388,-1.1388,-1.1388,-1.1388,-1.1349,-1.1364,-1.136,-1.1375,-1.1374,-1.1384,-1.1386,-1.1388,-1.139,-1.14,-1.1406,-1.1404,-1.1404,-1.141,-1.1415,-1.1414,-1.1417,-1.1425,-1.1422,-1.1391,-1.1387,-1.1383,-1.1379,-1.1425,-1.1425,-1.1454,-1.1454,-1.1454]}]]